RPM Weather Reports


Display with metric or nautical units.
time (UTC)temp
F
wind
direction
speed
MPH
gust
MPH
rain 1hr
in
rain 24hr
in
rain mn
in
humidity
%
barometer
mb
20260509221544 88 0 0.0 0.0 0.00 0.00 0.00 50 1007.6
20260509220046 89 162 0.0 2.0 0.00 0.00 0.00 53 1007.7
20260509214556 88 0 1.0 7.0 0.00 0.00 0.00 52 1007.8
20260509213042 87 134 1.0 6.0 0.00 0.00 0.00 52 1007.9
20260509211541 88 129 1.0 6.0 0.00 0.00 0.00 53 1008.1
20260509210051 87 0 0.0 7.0 0.00 0.00 0.00 56 1008.3
20260509204543 85 0 3.0 11.0 0.00 0.00 0.00 56 1008.6
20260509203052 88 213 0.0 4.0 0.00 0.00 0.00 54 1008.9
20260509201541 87 0 1.0 6.0 0.00 0.00 0.00 55 1009.2
20260509200041 87 0 0.0 4.0 0.00 0.00 0.00 57 1009.5
20260509194541 86 103 0.0 2.0 0.00 0.00 0.00 59 1009.5
20260509193047 85 134 0.0 9.0 0.00 0.00 0.00 60 1009.6
20260509191544 84 110 0.0 8.0 0.00 0.00 0.00 66 1009.6
20260509190042 83 116 0.0 7.0 0.00 0.00 0.00 69 1009.9
20260509184547 82 0 0.0 7.0 0.00 0.00 0.00 69 1010.3
20260509183051 81 122 1.0 6.0 0.00 0.00 0.00 70 1010.3
20260509181606 81 0 0.0 1.0 0.00 0.00 0.00 71 1010.6
20260509180110 81 0 0.0 3.0 0.00 0.00 0.00 71 1010.9
20260509174543 81 0 0.0 7.0 0.00 0.00 0.00 73 1010.8
20260509173044 79 0 0.0 4.0 0.00 0.00 0.00 77 1010.8
20260509171553 80 0 3.0 131.0 0.00 0.00 0.00 74 1011.2
20260509170048 80 0 2.0 9.0 0.00 0.00 0.00 75 1011.5
20260509164546 79 298 4.0 10.0 0.00 0.00 0.00 77 1011.2
20260509163045 79 238 5.0 10.0 0.00 0.00 0.00 77 1011.3
20260509161557 79 281 7.0 16.0 0.00 0.00 0.00 79 1011.4
20260509160044 80 253 5.0 10.0 0.00 0.00 0.00 78 1011.3
20260509154542 81 238 7.0 13.0 0.00 0.00 0.00 78 1010.8
20260509153103 81 86 3.0 7.0 0.00 0.00 0.00 76 1010.4
20260509151557 80 195 1.0 9.0 0.00 0.00 0.00 79 1010.4
20260509150049 79 327 5.0 11.0 0.00 0.00 0.00 79 1010.2
20260509144552 78 277 6.0 13.0 0.00 0.00 0.00 80 1010.2
20260509143106 77 359 5.0 9.0 0.00 0.00 0.00 82 1010.0
20260509141550 76 217 1.0 7.0 0.00 0.00 0.00 85 1010.1
20260509140048 75 217 2.0 8.0 0.00 0.00 0.00 86 1009.8
20260509134547 75 236 5.0 10.0 0.00 0.00 0.00 88 1009.7
20260509133058 73 217 6.0 11.0 0.00 0.00 0.00 91 1009.5
20260509131546 72 225 5.0 10.0 0.00 0.00 0.00 93 1009.5
20260509130048 71 161 2.0 8.0 0.00 0.00 0.00 94 1009.7
20260509124549 71 0 1.0 4.0 0.00 0.00 0.00 94 1009.8
20260509123047 71 0 0.0 3.0 0.00 0.00 0.00 94 1010.0
20260509121553 70 0 0.0 0.0 0.00 0.00 0.00 94 1010.2
20260509120045 70 0 0.0 0.0 0.00 0.00 0.00 94 1010.2
20260509114540 70 0 0.0 0.0 0.00 0.00 0.00 94 1010.7
20260509113042 70 0 0.0 0.0 0.00 0.00 0.00 94 1011.0
20260509111547 71 0 0.0 0.0 0.00 0.00 0.00 93 1011.0
20260509110049 71 0 0.0 0.0 0.00 0.00 0.00 93 1011.3
20260509104601 71 0 0.0 5.0 0.00 0.00 0.00 93 1011.5
20260509103042 71 0 0.0 0.0 0.00 0.00 0.00 93 1011.5
20260509101540 71 0 0.0 2.0 0.00 0.00 0.00 93 1011.3
20260509100040 71 0 0.0 0.0 0.00 0.00 0.00 93 1011.1
20260509094548 71 0 0.0 3.0 0.00 0.00 0.00 93 1010.7
20260509093048 71 0 0.0 3.0 0.00 0.00 0.00 93 1010.1
20260509091548 71 0 0.0 0.0 0.00 0.00 0.00 92 1009.6
20260509090052 72 0 0.0 0.0 0.00 0.00 0.00 92 1009.6
20260509084553 72 0 0.0 0.0 0.00 0.00 0.00 91 1009.9
20260509083044 72 0 0.0 0.0 0.00 0.00 0.00 91 1010.3
20260509081553 72 0 0.0 0.0 0.00 0.00 0.00 91 1010.2
20260509080047 72 0 0.0 0.0 0.00 0.00 0.00 91 1010.3
20260509074545 72 0 0.0 0.0 0.00 0.00 0.00 91 1010.4
20260509073048 72 0 0.0 0.0 0.00 0.00 0.00 91 1010.7
20260509071549 72 0 0.0 0.0 0.00 0.00 0.00 91 1010.9
20260509070051 72 0 0.0 1.0 0.00 0.00 0.00 91 1010.9
20260509064547 72 0 0.0 0.0 0.00 0.00 0.00 91 1010.7
20260509063104 72 0 0.0 0.0 0.00 0.00 0.00 91 1010.9
20260509061611 72 0 0.0 0.0 0.00 0.00 0.00 91 1010.9
20260509060057 72 155 0.0 3.0 0.00 0.00 0.00 91 1010.5
20260509054547 72 187 2.0 7.0 0.00 0.00 0.00 91 1010.6
20260509053048 72 182 1.0 7.0 0.00 0.00 0.00 91 1009.7
20260509051547 72 162 0.0 4.0 0.00 0.00 0.00 91 1009.1
20260509050049 72 202 1.0 4.0 0.00 0.00 0.00 90 1008.9
20260509044545 72 0 0.0 0.0 0.00 0.00 0.00 90 1009.2
20260509043047 72 0 0.0 3.0 0.00 0.00 0.00 89 1009.8
20260509041548 72 0 1.0 4.0 0.00 0.00 0.00 89 1009.8
20260509040051 72 0 0.0 6.0 0.00 0.00 0.00 89 1010.0
20260509034546 72 180 0.0 5.0 0.00 0.00 0.00 89 1009.8
20260509033047 72 0 0.0 7.0 0.00 0.00 0.00 89 1009.8
20260509031549 72 188 0.0 5.0 0.00 0.00 0.00 88 1009.3
20260509030051 73 207 1.0 4.0 0.00 0.00 0.00 88 1009.2
20260509024541 73 0 0.0 2.0 0.00 0.00 0.00 88 1009.1
20260509023041 73 0 0.0 3.0 0.00 0.00 0.00 87 1009.1
20260509021547 73 0 0.0 4.0 0.00 0.00 0.00 86 1008.8
20260509020054 74 0 0.0 2.0 0.00 0.00 0.00 85 1008.6
20260509014548 74 0 1.0 6.0 0.00 0.00 0.00 84 1008.5
20260509013042 74 0 0.0 5.0 0.00 0.00 0.00 83 1008.5
20260509011548 75 150 0.0 7.0 0.00 0.00 0.00 82 1008.3
20260509010048 75 148 2.0 8.0 0.00 0.00 0.00 81 1008.4
20260509004547 76 146 0.0 5.0 0.00 0.00 0.00 81 1008.4
20260509003045 76 0 0.0 5.0 0.00 0.00 0.00 80 1008.4
20260509001540 76 158 1.0 7.0 0.00 0.00 0.00 80 1008.3
20260509000043 76 0 1.0 7.0 0.00 0.00 0.00 81 1008.5
20260508234552 75 112 0.0 6.0 0.00 0.00 0.00 81 1008.6
20260508233050 75 148 0.0 7.0 0.00 0.00 0.00 81 1008.6
20260508231541 75 129 2.0 8.0 0.00 0.00 0.00 80 1008.5
20260508230040 76 148 2.0 9.0 0.00 0.00 0.00 79 1008.3
20260508224539 76 150 4.0 9.0 0.00 0.00 0.00 78 1008.5
20260508223043 77 130 0.0 7.0 0.00 0.00 0.00 77 1008.5